Regional Weather Roundup
Issued by NWS

Home | Current Version | Previous Version | Text Only | Print | Product List | Glossary On
Versions: 1 2 3 4 5 6 7 8 9 10 11 12 13 14 15 16 17 18 19 20 21 22 23 24 25 26 27 28 29 30 31 32 33 34 35 36 37 38 39 40 41 42 43 44 45 46 47 48
000
ASUS45 KSLC 292010
RWRUT

UTAH REGIONAL WEATHER ROUNDUP
NATIONAL WEATHER SERVICE SALT LAKE CITY UT
200 PM MDT SUN MAR 29 2015

UTZ001>011-023>025-292100-

NORTHERN UTAH

CITY           SKY/WX    TMP DP  RH WIND       PRES   REMARKS
BRIGHAM CITY   SUNNY     59  17  19 S5        30.30F
HILL AFB       SUNNY     59  22  23 VRB6      30.30F
LOGAN          SUNNY     59  21  23 VRB3      30.28F
OGDEN          SUNNY     61  19  19 W7        30.29F
PROVO AIRPORT  MOSUNNY   61  27  27 VRB6      30.28F
SALT LAKE CITY MOSUNNY   63  19  18 NW9       30.27F
VERNAL         SUNNY     62  13  14 S8        30.26F
WENDOVER       SUNNY     57  19  23 SE6       30.30F
HEBER CITY     SUNNY     64  18  16 SW10      30.26F
WEST JORDAN    SUNNY     64  27  24 N8        30.28F

$$

UTZ012>022-026-027-292100-

SOUTHERN/CENTRAL UTAH

CITY           SKY/WX    TMP DP  RH WIND       PRES   REMARKS
BLANDING       SUNNY     71  19  14 S6        30.31F
BRYCE CANYON   SUNNY     63  21  20 E5        30.35F
CEDAR CITY     SUNNY     67  18  15 VRB3      30.26F
DELTA          SUNNY     65  11  12 CALM      30.27F
HANKSVILLE     SUNNY     73  14  10 E3        30.22F
MILFORD        MOSUNNY   65  17  15 N9        30.26F
MOAB/CYNLANDS  SUNNY     73   5   7 N6        30.19F
PRICE          SUNNY     70  11  10 S8        30.24F
ST GEORGE      CLEAR     77  28  16 CALM      30.14F
KANAB          SUNNY     75  19  12 SW6       30.23F

$$

REGIONAL REPORTS     COLORADO/ARIZONA

CITY           SKY/WX    TMP DP  RH WIND       PRES   REMARKS
CRAIG, CO      SUNNY     62  15  16 W9G16     30.27F
GRAND JUNCTION SUNNY     70   9   9 VRB5      30.19F
RIFLE          SUNNY     66  11  11 CALM      30.22F
MONTROSE       SUNNY     69   1   7 NW8       30.24F
CORTEZ         SUNNY     74  17  11 W9G18     30.23F
PAGE, AZ       SUNNY     76  21  12 VRB7      30.18F
GRAND CANYON   MOSUNNY   69  19  15 CALM      30.29F
KINGMAN        MOSUNNY   83  21  10 W9        30.13F
FLAGSTAFF      SUNNY     68   8   9 E3        30.30F

$$

REGIONAL REPORTS    NEVADA/IDAHO/WYOMING

CITY           SKY/WX    TMP DP  RH WIND       PRES   REMARKS
LAS VEGAS, NV  MOSUNNY   84  21  10 SE6       30.04F
ELY            SUNNY     67  13  12 VRB6      30.27F
ELKO           SUNNY     64   9  11 VRB3      30.25F
POCATELLO, ID  SUNNY     58  21  24 S9        30.30F
BURLEY         SUNNY     59  19  21 W8        30.28F
EVANSTON, WY   SUNNY     57  11  16 W9G24     30.30F
ROCK SPRINGS   SUNNY     55  12  18 W8        30.27F
KEMMERER       SUNNY     54   7  15 SW12G18   30.30F

$$



USA.gov is the U.S. government's official web portal to all federal, state and local government web resources and services.